Date String (YYYY-MM-DD hh:mm:ss) UTC,Instrument flags,absolute air pressure of the measurement (hPa),sample flow rate (lpm),inlet stack bypass flow (lpm),air temperature of the measurement (°C),ambient temperature measured by the external sensor (°C),aerosol sample conditioner tube jacket temperature (°C),OPC LED temperature (°C),internal box temperature (°C),relative humidity of the measurement (%),span deviation,mass concentration of particles derived from Lorenz-Mie calculation of OPC scattering (μg/m³),mass concentration of particles derived from Lorenz-Mie calculation of OPC scattering (μg/m³),mass concentration of particles derived from Lorenz-Mie calculation of OPC scattering (μg/m³)
DateTimeUTC,F1_M11,P_M11,Q1_M11,Q2_M11,T1_M11,T2_M11,T3_M11,T4_M11,T5_M11,U1_M11,ZSPAN_M11,X2_M11,X0_M11,X1_M11
2023-08-31 13:00:00,SystemResetWarning,0829.7,5.01,000.00,025.8,023.8,000.0,034.3,027.4,17.2,0000.0,0003.30,0008.01,0002.67
2023-08-31 13:01:00,SystemResetWarning,0829.7,5.00,000.00,025.8,024.1,000.0,034.3,027.4,17.3,0000.0,0003.29,0007.96,0002.67
2023-08-31 13:02:00,SystemResetWarning,0829.7,5.00,000.00,025.9,024.3,000.0,034.3,027.5,17.0,0000.0,0003.32,0008.00,0002.68
2023-08-31 13:03:00,SystemResetWarning,0829.7,5.00,000.00,025.9,024.5,000.0,034.3,027.6,17.0,0000.0,0003.33,0007.43,0002.71
2023-08-31 13:04:00,SystemResetWarning,0829.7,5.00,000.00,025.9,024.7,000.0,034.3,027.6,16.9,0000.0,0003.32,0007.30,0002.73
2023-08-31 13:05:00,SystemResetWarning,0829.7,5.00,000.00,026.0,024.8,000.0,034.3,027.7,16.8,0000.0,0003.34,0007.42,0002.74
2023-08-31 13:06:00,SystemResetWarning,0829.7,5.00,000.00,026.0,024.9,000.0,034.4,027.8,16.6,0000.0,0003.35,0007.58,0002.74
2023-08-31 13:07:00,SystemResetWarning,0829.7,4.99,000.00,026.1,025.1,000.0,034.4,027.8,16.6,0000.0,0003.35,0007.72,0002.74
2023-08-31 13:08:00,SystemResetWarning,0829.8,4.99,000.00,026.1,025.1,000.0,034.4,027.8,16.8,0000.0,0003.33,0007.78,0002.72
2023-08-31 13:09:00,SystemResetWarning,0829.7,5.00,000.00,026.1,025.2,000.0,034.4,027.9,17.0,0000.0,0003.29,0008.50,0002.69
2023-08-31 13:10:00,SystemResetWarning,0829.7,5.00,000.00,026.2,025.3,000.0,034.5,027.9,16.7,0000.0,0003.26,0007.88,0002.68
2023-08-31 13:11:00,SystemResetWarning,0829.7,5.00,000.00,026.2,025.3,000.0,034.5,028.0,16.7,0000.0,0003.26,0007.84,0002.66
2023-08-31 13:12:00,SystemResetWarning,0829.7,5.00,000.00,026.3,024.9,000.0,034.5,027.9,16.7,0000.0,0003.28,0008.10,0002.64
2023-08-31 13:13:00,SystemResetWarning,0829.7,5.00,000.00,026.2,023.2,000.0,034.4,027.3,16.8,0000.0,0003.25,0008.09,0002.61
2023-08-31 13:14:00,SystemResetWarning,0829.7,5.00,000.00,026.0,022.3,000.0,034.3,027.2,16.9,0000.0,0003.26,0008.39,0002.57
2023-08-31 13:15:00,SystemResetWarning,0829.7,5.01,000.00,025.9,022.5,000.0,034.3,027.1,17.0,0000.0,0003.26,0008.85,0002.55
2023-08-31 13:16:00,SystemResetWarning,0829.7,5.01,000.00,025.9,022.8,000.0,034.3,027.1,17.2,0000.0,0003.25,0008.76,0002.53
2023-08-31 13:17:00,SystemResetWarning,0829.7,5.00,000.00,025.9,023.2,000.0,034.3,027.2,17.4,0000.0,0003.25,0008.73,0002.51
2023-08-31 13:18:00,SystemResetWarning,0829.7,5.00,000.00,025.9,023.5,000.0,034.3,027.4,17.5,0000.0,0003.25,0008.59,0002.50
2023-08-31 13:19:00,SystemResetWarning,0829.7,5.00,000.00,025.9,023.9,000.0,034.3,027.4,17.3,0000.0,0003.24,0008.50,0002.50
2023-08-31 13:20:00,SystemResetWarning,0829.7,5.00,000.00,025.9,024.1,000.0,034.3,027.5,17.8,0000.0,0003.24,0007.74,0002.50
2023-08-31 13:21:00,SystemResetWarning,0829.7,5.00,000.00,025.9,024.4,000.0,034.3,027.6,17.5,0000.0,0003.26,0007.89,0002.49
2023-08-31 13:22:00,SystemResetWarning,0829.7,5.00,000.00,026.0,024.6,000.0,034.3,027.6,17.4,0000.0,0003.25,0007.69,0002.47
2023-08-31 13:23:00,SystemResetWarning,0829.7,5.00,000.00,026.0,024.7,000.0,034.4,027.7,17.1,0000.0,0003.23,0007.86,0002.46
2023-08-31 13:24:00,SystemResetWarning,0829.7,5.00,000.00,026.1,024.9,000.0,034.4,027.8,16.9,0000.0,0003.22,0008.28,0002.46
2023-08-31 13:25:00,SystemResetWarning,0829.7,5.00,000.00,026.1,025.0,000.0,034.4,027.8,16.8,0000.0,0003.20,0008.21,0002.48
2023-08-31 13:26:00,SystemResetWarning,0829.7,5.00,000.00,026.1,025.1,000.0,034.4,027.9,16.8,0000.0,0003.19,0007.94,0002.47
2023-08-31 13:27:00,SystemResetWarning,0829.7,5.00,000.00,026.2,025.2,000.0,034.5,027.9,17.8,0000.0,0003.17,0008.45,0002.47
2023-08-31 13:28:00,SystemResetWarning,0829.7,5.01,000.00,026.2,025.3,000.0,034.5,028.0,18.4,0000.0,0003.12,0008.24,0002.47
2023-08-31 13:29:00,SystemResetWarning,0829.7,4.99,000.00,026.3,025.0,000.0,034.5,028.0,18.3,0000.0,0003.12,0008.17,0002.47
2023-08-31 13:30:00,SystemResetWarning,0829.7,4.99,000.00,026.2,023.4,000.0,034.4,027.5,18.1,0000.0,0003.13,0008.29,0002.47
2023-08-31 13:31:00,SystemResetWarning,0829.7,5.00,000.00,026.1,022.5,000.0,034.3,027.3,17.8,0000.0,0003.13,0008.35,0002.48
2023-08-31 13:32:00,SystemResetWarning,0829.7,5.01,000.00,026.0,022.7,000.0,034.3,027.3,17.4,0000.0,0003.10,0008.03,0002.48
2023-08-31 13:33:00,SystemResetWarning,0829.7,5.01,000.00,025.9,023.0,000.0,034.3,027.3,17.1,0000.0,0003.10,0007.97,0002.50
2023-08-31 13:34:00,SystemResetWarning,0829.7,5.00,000.00,025.9,023.3,000.0,034.3,027.3,16.8,0000.0,0003.10,0007.68,0002.50
2023-08-31 13:35:00,SystemResetWarning,0829.7,5.00,000.00,025.9,023.7,000.0,034.3,027.4,16.6,0000.0,0003.09,0006.96,0002.51
2023-08-31 13:36:00,SystemResetWarning,0829.7,5.00,000.00,025.9,024.0,000.0,034.3,027.5,16.6,0000.0,0003.10,0006.93,0002.50
2023-08-31 13:37:00,SystemResetWarning,0829.7,5.00,000.00,026.0,024.2,000.0,034.4,027.6,16.4,0000.0,0003.10,0007.12,0002.50
2023-08-31 13:38:00,SystemResetWarning,0829.7,5.00,000.00,026.0,024.5,000.0,034.4,027.7,16.6,0000.0,0003.08,0006.24,0002.50
2023-08-31 13:39:00,SystemResetWarning,0829.7,5.00,000.00,026.0,024.7,000.0,034.4,027.7,16.7,0000.0,0003.09,0006.34,0002.51
2023-08-31 13:40:00,SystemResetWarning,0829.7,5.00,000.00,026.1,024.8,000.0,034.4,027.8,17.5,0000.0,0003.09,0006.62,0002.50
2023-08-31 13:41:00,SystemResetWarning,0829.7,4.99,000.00,026.1,025.0,000.0,034.4,027.8,18.3,0000.0,0003.09,0006.96,0002.49
2023-08-31 13:42:00,SystemResetWarning,0829.7,5.00,000.00,026.2,025.1,000.0,034.4,027.9,19.0,0000.0,0003.09,0007.46,0002.49
2023-08-31 13:43:00,SystemResetWarning,0829.7,5.00,000.00,026.2,025.2,000.0,034.5,028.0,18.6,0000.0,0003.10,0007.81,0002.50
2023-08-31 13:44:00,SystemResetWarning,0829.8,5.00,000.00,026.3,025.3,000.0,034.5,028.0,18.6,0000.0,0003.12,0008.07,0002.50
2023-08-31 13:45:00,SystemResetWarning,0829.7,4.99,000.00,026.2,024.3,000.0,034.5,027.8,19.1,0000.0,0003.12,0007.99,0002.49
2023-08-31 13:46:00,SystemResetWarning,0829.7,5.00,000.00,026.1,022.9,000.0,034.4,027.3,19.3,0000.0,0003.11,0008.18,0002.49
2023-08-31 13:47:00,SystemResetWarning,0829.7,5.01,000.00,026.0,022.7,000.0,034.3,027.3,20.5,0000.0,0003.10,0008.10,0002.47
2023-08-31 13:48:00,SystemResetWarning,0829.8,5.00,000.00,026.0,023.0,000.0,034.3,027.3,21.1,0000.0,0003.10,0007.74,0002.46
2023-08-31 13:49:00,SystemResetWarning,0829.8,4.99,000.00,025.9,023.4,000.0,034.3,027.3,20.7,0000.0,0003.12,0007.70,0002.45
2023-08-31 13:50:00,SystemResetWarning,0829.8,5.00,000.00,026.0,023.7,000.0,034.4,027.4,20.6,0000.0,0003.13,0007.71,0002.45
2023-08-31 13:51:00,SystemResetWarning,0829.8,5.01,000.00,026.0,024.0,000.0,034.4,027.5,19.6,0000.0,0003.15,0007.62,0002.45
2023-08-31 13:52:00,SystemResetWarning,0829.8,5.00,000.00,026.0,024.3,000.0,034.4,027.6,19.5,0000.0,0003.15,0007.40,0002.46
2023-08-31 13:53:00,SystemResetWarning,0829.7,5.00,000.00,026.0,024.5,000.0,034.4,027.7,21.9,0000.0,0003.15,0006.67,0002.45
2023-08-31 13:54:00,SystemResetWarning,0829.7,5.01,000.00,026.1,024.7,000.0,034.4,027.8,21.2,0000.0,0003.15,0007.22,0002.43
2023-08-31 13:55:00,SystemResetWarning,0829.7,5.00,000.00,026.1,024.9,000.0,034.4,027.8,19.2,0000.0,0003.13,0008.10,0002.42
2023-08-31 13:56:00,SystemResetWarning,0829.7,5.00,000.00,026.2,025.0,000.0,034.4,027.9,19.9,0000.0,0003.14,0008.20,0002.44
2023-08-31 13:57:00,SystemResetWarning,0829.8,5.00,000.00,026.2,025.2,000.0,034.5,028.0,24.1,0000.0,0003.15,0008.59,0002.45
2023-08-31 13:58:00,SystemResetWarning,0829.7,4.99,000.00,026.2,024.7,000.0,034.4,027.9,22.1,0000.0,0003.17,0009.05,0002.45
2023-08-31 13:59:00,SystemResetWarning,0829.8,5.00,000.00,026.1,023.3,000.0,034.4,027.4,22.8,0000.0,0003.16,0009.32,0002.46
